DW4230 Weather Reports


time (UTC)temp
C
wind
direction
speed
KPH
gust
KPH
rain 1hr
cm
rain 24hr
cm
rain mn
cm
humidity
%
barometer
mb
20260905154519 22 67 8.0 20.9 0.00 0.00 0.00 76 1007.6
20260905153059 22 53 8.0 20.9 0.00 0.00 0.00 75 1007.4
20260905151509 22 42 9.7 19.3 0.00 0.00 0.00 74 1007.5
20260905150040 22 81 9.7 20.9 0.00 0.00 0.00 76 1007.3
20260905144503 22 77 6.4 17.7 0.00 0.00 0.00 78 1007.4
20260905143041 22 51 8.0 19.3 0.00 0.00 0.00 77 1007.6
20260905141602 21 16 6.4 17.7 0.00 0.00 0.00 79 1007.5
20260905140028 21 48 6.4 14.5 0.00 0.00 0.00 79 1007.7
20260905134610 21 39 6.4 16.1 0.00 0.00 0.00 80 1007.6
20260905133036 21 37 6.4 14.5 0.00 0.00 0.00 80 1007.6
20260905131505 21 21 8.0 17.7 0.00 0.00 0.00 80 1007.5
20260905130050 21 79 8.0 16.1 0.00 0.00 0.00 81 1007.5
20260905124509 20 34 6.4 16.1 0.00 0.00 0.00 82 1007.2
20260905123043 20 37 9.7 20.9 0.00 0.00 0.00 82 1007.0
20260905121509 20 23 3.2 17.7 0.00 0.00 0.00 83 1006.8
20260905120048 19 23 8.0 16.1 0.00 0.00 0.00 84 1006.8
20260905114516 18 14 3.2 14.5 0.00 0.00 0.00 86 1006.9
20260905113101 18 10 6.4 16.1 0.00 0.00 0.00 86 1006.8
20260905111551 18 45 3.2 16.1 0.00 0.00 0.00 87 1006.7
20260905110004 18 8 6.4 17.7 0.00 0.00 0.00 88 1006.7
20260905104534 17 29 6.4 17.7 0.00 0.00 0.00 88 1006.6
20260905103002 17 8 6.4 14.5 0.00 0.00 0.00 88 1006.4
20260905101544 17 33 6.4 16.1 0.00 0.00 0.00 88 1006.1
20260905100018 17 2 8.0 17.7 0.00 0.00 0.00 88 1006.0
20260905094550 18 3 8.0 17.7 0.00 0.00 0.00 87 1005.9
20260905093009 18 38 8.0 14.5 0.00 0.00 0.00 88 1005.9
20260905091539 18 25 6.4 17.7 0.00 0.00 0.00 87 1006.0
20260905090110 18 23 6.4 14.5 0.00 0.00 0.00 87 1006.1
20260905084529 18 1 4.8 14.5 0.00 0.00 0.00 87 1006.1
20260905083057 18 15 4.8 16.1 0.00 0.00 0.00 86 1006.1
20260905081529 18 35 4.8 14.5 0.00 0.00 0.00 86 1006.1
20260905080003 18 18 4.8 17.7 0.00 0.00 0.00 86 1006.0
20260905074545 18 10 3.2 11.3 0.00 0.00 0.00 85 1006.1
20260905070031 18 16 6.4 17.7 0.00 0.00 0.00 84 1006.5
20260905064502 19 351 4.8 12.9 0.00 0.00 0.00 84 1006.6
20260905063042 20 8 3.2 12.9 0.00 0.00 0.00 83 1006.9
20260905061511 20 29 3.2 12.9 0.00 0.00 0.00 81 1006.9
20260905060053 20 335 1.6 9.7 0.00 0.00 0.00 82 1006.9
20260905054539 20 357 1.6 9.7 0.00 0.00 0.00 82 1006.9
20260905053140 20 9 1.6 9.7 0.00 0.00 0.00 82 1006.9
20260905051519 20 18 1.6 8.0 0.00 0.00 0.00 82 1006.8
20260905050051 20 5 0.0 6.4 0.00 0.00 0.00 82 1007.2
20260905044522 20 341 1.6 6.4 0.00 0.00 0.00 82 1007.1
20260905043100 20 341 0.0 8.0 0.00 0.00 0.00 83 1007.1
20260905041533 20 337 0.0 6.4 0.00 0.00 0.00 85 1007.3
20260905040110 20 336 1.6 6.4 0.00 0.00 0.00 87 1007.1
20260905034542 20 333 0.0 1.6 0.00 0.00 0.00 88 1007.2
20260905030033 21 166 0.0 0.0 0.00 0.00 0.00 92 1006.7
20260905024510 21 164 0.0 0.0 0.00 0.00 0.00 92 1006.6
20260905023041 21 164 0.0 0.0 0.00 0.00 0.00 92 1006.7
20260905021506 21 179 0.0 0.0 0.00 0.00 0.00 92 1006.6
20260905020036 21 179 0.0 0.0 0.00 0.00 0.00 92 1006.9
20260905014501 21 179 0.0 0.0 0.00 0.00 0.00 91 1007.1
20260905013047 21 179 0.0 0.0 0.00 0.00 0.00 91 1007.2
20260905011515 21 179 0.0 0.0 0.00 0.00 0.00 90 1007.3
20260905004533 21 179 0.0 9.7 0.00 0.00 0.00 91 1007.4
20260905003104 22 146 1.6 4.8 0.00 0.00 0.00 91 1007.1
20260905001535 22 134 3.2 9.7 0.00 0.00 0.00 91 1007.0
20260905000000 21 173 0.0 0.0 0.00 0.00 0.00 90 1006.6
20260904234531 22 173 0.0 1.6 0.00 0.00 0.00 90 1006.6
20260904224520 23 143 4.8 11.3 0.00 0.00 0.00 87 1006.6
20260904223103 23 119 3.2 9.7 0.00 0.00 0.00 87 1006.4
20260904221530 24 176 0.0 4.8 0.00 0.00 0.00 83 1006.1
20260904220113 25 174 1.6 6.4 0.00 0.00 0.00 81 1006.2
20260904214542 25 173 1.6 8.0 0.00 0.00 0.00 82 1006.0
20260904213004 25 189 1.6 9.7 0.00 0.00 0.00 82 1005.9
20260904211534 25 133 1.6 8.0 0.00 0.00 0.00 81 1006.1
20260904210003 25 196 4.8 9.7 0.00 0.00 0.00 80 1006.2
20260904204539 25 168 0.0 9.7 0.00 0.00 0.00 80 1006.4
20260904194601 26 156 3.2 9.7 0.00 0.00 0.00 74 1006.2
20260904193115 27 189 1.6 11.3 0.00 0.00 0.00 74 1006.4
20260904191532 27 164 3.2 9.7 0.00 0.00 0.00 71 1006.4
20260904190115 27 190 3.2 8.0 0.00 0.00 0.00 72 1006.3
20260904184529 27 124 4.8 11.3 0.00 0.00 0.00 73 1006.2
20260904183102 27 202 8.0 12.9 0.00 0.00 0.00 73 1006.3
20260904181523 27 124 3.2 11.3 0.00 0.00 0.00 75 1006.2
20260904180100 27 191 1.6 12.9 0.00 0.00 0.00 78 1006.5
20260904174525 26 187 0.0 11.3 0.00 0.00 0.00 79 1006.7
20260904173126 26 146 1.6 9.7 0.00 0.00 0.00 79 1006.8
20260904171538 25 181 3.2 12.9 0.00 0.00 0.00 81 1006.8
20260904170113 25 89 8.0 12.9 0.00 0.00 0.00 80 1006.8
20260904164527 25 114 8.0 12.9 0.00 0.00 0.00 82 1006.9